Glasgow, MT

6:10 AM MDT on May 23, 2017 (GMT -0600)
Wokal-Glasgow International

Weather History for KGGW - September, 2013

Change the Weather History Date:

Friday, September 13, 2013

  Actual Average Record
Temperature  
Mean Temperature 71 °F 59 °F  
Max Temperature 87 °F 73 °F 93 °F (1913)
Min Temperature 55 °F 46 °F 21 °F (1949)
Degree Days  
Heating Degree Days 0 7  
Month to date heating degree days 2 66  
Since 1 July heating degree days 17 119  
Cooling Degree Days 6 1  
Month to date cooling degree days 80 28  
Year to date cooling degree days 557 523  
Growing Degree Days 21 (Base 50)    
Moisture  
Dew Point 53 °F    
Average Humidity 58    
Maximum Humidity 83    
Minimum Humidity 32    
Precipitation  
Precipitation 0.00 in 0.03 in 1.17 in (1906)
Month to date precipitation 1.53 0.41  
Year to date precipitation 14.12 9.58  
Snow  
Snow 0.00 in 0.00 in 0.10 in (1970)
Month to date snowfall 0.0 0.0  
Since 1 July snowfall 0.0 0.0  
Since 1 September snowfall 0.0 0.0  
Snow Depth 0.00 in    
Sea Level Pressure  
Sea Level Pressure 29.86 in    
Wind  
Wind Speed 10 mph (ESE)    
Max Wind Speed 17 mph    
Max Gust Speed 24 mph    
Visibility 10 miles    
Events      
T = Trace of Precipitation, MM = Missing Value Source: NWS Daily Summary

Daily Weather History Graph

Daily Weather History Graph

Search for Another Location

Airport or City:

Trip Planner

Search our weather history database for the weather conditions in past years. The results will help you decide how hot, cold, wet, or windy it might be!

Date:

Astronomy

Sep. 13, 2013 Rise Set
Actual Time 6:41 AM MDT 7:22 PM MDT
Civil Twilight 6:09 AM MDT 7:53 PM MDT
Nautical Twilight 5:32 AM MDT 8:31 PM MDT
Astronomical Twilight 4:52 AM MDT 9:10 PM MDT
Moon 3:34 PM MDT (9/13) No Moon Set
Length of Visible Light 13h 44m
Length of Day
12h 41m
Waxing Gibbous, 62% of the Moon is Illuminated
Sep 13
Waxing Gibbous
Sep 19
Full
Sep 26
Last Quarter
Oct 4
New
Oct 11
First Quarter

Hourly Weather History & Observations

Time (MDT) Temp. Heat Index Dew Point Humidity Pressure Visibility Wind Dir Wind Speed Gust Speed Precip Events Conditions
12:53 AM 59.0 °F - 46.0 °F 62% 30.04 in 10.0 mi East 13.8 mph - N/A   Clear
1:53 AM 57.9 °F - 46.9 °F 67% 30.01 in 10.0 mi East 12.7 mph - N/A   Clear
2:53 AM 57.0 °F - 48.0 °F 72% 30.00 in 10.0 mi East 13.8 mph - N/A   Clear
3:53 AM 57.0 °F - 48.0 °F 72% 29.98 in 10.0 mi East 13.8 mph - N/A   Clear
4:53 AM 55.9 °F - 48.9 °F 77% 29.98 in 10.0 mi ESE 12.7 mph - N/A   Clear
5:53 AM 55.9 °F - 48.9 °F 77% 29.96 in 10.0 mi East 10.4 mph - N/A   Clear
6:53 AM 55.9 °F - 50.0 °F 80% 29.96 in 10.0 mi East 12.7 mph - N/A   Clear
7:53 AM 57.9 °F - 50.0 °F 75% 29.95 in 10.0 mi ESE 13.8 mph - N/A   Clear
8:53 AM 64.0 °F - 51.1 °F 63% 29.93 in 10.0 mi ESE 12.7 mph - N/A   Clear
9:53 AM 68.0 °F - 52.0 °F 56% 29.91 in 10.0 mi SE 10.4 mph - N/A   Clear
10:53 AM 73.0 °F - 53.1 °F 49% 29.88 in 10.0 mi SE 12.7 mph - N/A   Clear
11:53 AM 79.0 °F - 54.0 °F 42% 29.85 in 10.0 mi South 15.0 mph - N/A   Clear
12:53 PM 82.9 °F 82.0 °F 55.0 °F 38% 29.82 in 10.0 mi SSE 15.0 mph 20.7 mph N/A   Clear
1:53 PM 86.0 °F 84.2 °F 54.0 °F 33% 29.79 in 10.0 mi South 13.8 mph - N/A   Clear
2:53 PM 84.9 °F 83.6 °F 55.0 °F 36% 29.78 in 10.0 mi SSE 15.0 mph - N/A   Clear
3:53 PM 84.0 °F 83.0 °F 55.9 °F 38% 29.76 in 10.0 mi SSE 12.7 mph - N/A   Clear
4:53 PM 84.0 °F 83.3 °F 57.0 °F 40% 29.75 in 10.0 mi SE 4.6 mph - N/A   Clear
5:53 PM 82.9 °F 82.1 °F 55.9 °F 39% 29.74 in 10.0 mi South 5.8 mph - N/A   Clear
9:53 PM 71.1 °F - 59.0 °F 66% 29.72 in 10.0 mi NE 9.2 mph - N/A   Clear
10:53 PM 69.1 °F - 59.0 °F 70% 29.72 in 10.0 mi NE 9.2 mph - N/A   Clear
11:53 PM 69.1 °F - 57.0 °F 65% 29.71 in 10.0 mi Calm Calm - N/A   Clear